Voltar ao catálogo

ONEWEB-0342

AtivoComunicaçõesPO
NORAD 49208·PAYLOAD·🇬🇧 United Kingdom

Lançado Sep 14, 2021 de Baikonur Cosmodrome

Loading…

Próximas Passagens (próximas 24 horas)

TLE

AtualizadoSource: CelesTrak SupGP

Época: Sep 14, 2026, 09:19 UTC

1 49208C 21083Y   26257.38868472  .00003275  00000+0  80648-2 0  2576
2 49208  87.9144 256.6424 0001991  87.1634  25.1168 13.20769282    10

Acompanhe ONEWEB-0342 em tempo real com AllMySat

Download on the App Store